VIASAT-3 F1

Last updated on Sun Jun 21 2026 00:03:09 GMT+0000 (Coordinated Universal Time)

1 56370U 23060A 26170.80398576 .00000000 00000+0 00000+0 0 9992 2 56370 0.0240 350.3723 0001100 91.4983 26.6368 1.00271166 11465
UTC large
Height (km)
Speed (km/s)
/
Latitude / Longitude
Inclination (degrees)
Orbital Period (minutes)
Azimuth
Elevation
Range (km)
Doppler Factor

Next 0 passes for location: London (51.5072 / 0.1276)

No passes found over London.
VIASAT-3 F1